Weather History for St. Joseph, MO

Change the Weather History Date:

Thursday, January 16, 2014

  Actual Average Record
Temperature  
Mean Temperature 32 °F 27 °F  
Max Temperature 45 °F 37 °F 66 °F (1990)
Min Temperature 18 °F 17 °F -12 °F (1977)
Degree Days  
Heating Degree Days 33 38  
Month to date heating degree days 693 611  
Since 1 July heating degree days 3121 2824  
Cooling Degree Days 0 0  
Month to date cooling degree days 0 0  
Year to date cooling degree days 0 0  
Moisture  
Dew Point 18 °F    
Average Humidity 57    
Maximum Humidity 74    
Minimum Humidity 40    
Precipitation  
Precipitation T in 0.02 in 0.58 in (1941)
Month to date precipitation 0.01 0.27  
Year to date precipitation 0.01 0.27  
Sea Level Pressure  
Sea Level Pressure 29.92 in    
Wind  
Wind Speed 21 mph (NW)    
Max Wind Speed 43 mph    
Max Gust Speed 53 mph    
Visibility 8 miles    
Events Snow    
T = Trace of Precipitation, MM = Missing Value Source: NWS Daily Summary

Daily Weather History Graph

Daily Weather History Graph

Search for Another Location

Airport:

Trip Planner

Search our weather history database for the weather conditions in past years. The results will help you decide how hot, cold, wet, or windy it might be!

Date:

Astronomy

Jan. 16, 2014 Rise Set
Actual Time 7:38 AM CST 5:20 PM CST
Civil Twilight 7:09 AM CST 5:50 PM CST
Nautical Twilight 6:35 AM CST 6:23 PM CST
Astronomical Twilight 6:03 AM CST 6:55 PM CST
Moon 6:12 PM CST (1/16) 7:32 AM CST (1/16)
Length of Visible Light 10h 41m
Length of Day
9h 42m
Full, 100% of the Moon is Illuminated
Jan 16
Full
Jan 23
Last Quarter
Jan 30
New
Feb 6
First Quarter
Feb 14
Full

Hourly Weather History & Observations

Time (CST) Temp. Windchill Dew Point Humidity Pressure Visibility Wind Dir Wind Speed Gust Speed Precip Events Conditions
12:53 AM 36.0 °F 30.3 °F 27.0 °F 70% 29.81 in 10.0 mi SW 6.9 mph - N/A   Overcast
1:53 AM 36.0 °F - 26.1 °F 67% 29.83 in 10.0 mi Calm Calm - N/A   Clear
2:53 AM 35.1 °F 28.6 °F 26.1 °F 70% 29.81 in 10.0 mi SSW 8.1 mph - N/A   Mostly Cloudy
3:53 AM 32.0 °F - 25.0 °F 75% 29.77 in 10.0 mi Calm Calm - N/A   Clear
4:53 AM 39.9 °F 31.8 °F 27.0 °F 60% 29.77 in 10.0 mi WNW 15.0 mph - N/A   Clear
5:53 AM 39.9 °F 31.8 °F 27.0 °F 60% 29.77 in 10.0 mi WNW 15.0 mph - N/A   Clear
6:53 AM 39.9 °F 32.1 °F 26.1 °F 58% 29.79 in 10.0 mi WNW 13.8 mph - N/A   Clear
7:53 AM 39.9 °F 29.7 °F 21.9 °F 49% 29.81 in 10.0 mi NW 23.0 mph 33.4 mph N/A   Clear
8:53 AM 42.1 °F 32.3 °F 21.9 °F 45% 29.83 in 10.0 mi WNW 24.2 mph 33.4 mph N/A   Clear
9:53 AM 42.1 °F 32.6 °F 21.9 °F 45% 29.85 in 10.0 mi NW 23.0 mph 29.9 mph N/A   Mostly Cloudy
10:53 AM 44.1 °F 35.0 °F 21.0 °F 40% 29.84 in 10.0 mi NW 24.2 mph 40.3 mph N/A   Mostly Cloudy
11:53 AM 43.0 °F 34.2 °F 21.9 °F 43% 29.83 in 10.0 mi WNW 20.7 mph - N/A   Mostly Cloudy
12:53 PM 43.0 °F 33.3 °F 21.0 °F 42% 29.82 in 10.0 mi NW 25.3 mph 48.3 mph N/A   Overcast
1:53 PM 44.1 °F 36.2 °F 21.0 °F 40% 29.82 in 10.0 mi NW 18.4 mph 29.9 mph N/A   Mostly Cloudy
2:53 PM 45.0 °F 35.6 °F 21.0 °F 39% 29.82 in 10.0 mi NW 27.6 mph 41.4 mph N/A   Mostly Cloudy
3:53 PM 39.0 °F 28.3 °F 19.9 °F 46% 29.85 in 10.0 mi WNW 24.2 mph 38.0 mph N/A   Scattered Clouds
4:53 PM 37.9 °F 24.6 °F 23.0 °F 55% 29.88 in 6.0 mi NW 36.8 mph 47.2 mph 0.00 in Snow Light Snow
5:53 PM 34.0 °F 18.9 °F 16.0 °F 48% 29.94 in 10.0 mi NNW 38.0 mph 46.0 mph 0.00 in   Mostly Cloudy
6:53 PM 27.0 °F 11.3 °F 9.0 °F 47% 30.01 in 10.0 mi NNW 27.6 mph 40.3 mph N/A   Scattered Clouds
7:53 PM 24.1 °F 5.6 °F 10.0 °F 55% 30.04 in 10.0 mi NNW 35.7 mph 42.6 mph N/A   Overcast
8:53 PM 21.0 °F 1.2 °F 7.0 °F 55% 30.05 in 10.0 mi NNW 36.8 mph 43.7 mph N/A   Overcast
9:31 PM 19.0 °F 1.6 °F 10.9 °F 71% 30.06 in 2.5 mi NNW 24.2 mph 34.5 mph 0.00 in Snow Light Snow
9:42 PM 19.0 °F 0.6 °F 10.0 °F 68% 30.06 in 4.0 mi NNW 27.6 mph 36.8 mph 0.00 in Snow Light Snow
9:53 PM 19.0 °F 2.4 °F 10.0 °F 68% 30.10 in 4.0 mi NNW 21.9 mph 35.7 mph 0.00 in Snow Light Snow
10:06 PM 18.0 °F 1.3 °F 10.9 °F 74% 30.07 in 2.0 mi NNW 20.7 mph 29.9 mph 0.00 in Snow Light Snow
10:17 PM 18.0 °F -1.7 °F 10.0 °F 71% 30.07 in 1.8 mi NNW 31.1 mph 42.6 mph 0.00 in Snow Light Snow
10:43 PM 18.0 °F 0.2 °F 10.0 °F 71% 30.08 in 3.0 mi NNW 24.2 mph 29.9 mph 0.00 in Snow Light Snow
10:53 PM 18.0 °F 0.9 °F 10.0 °F 71% 30.10 in 4.0 mi NNW 21.9 mph 29.9 mph 0.00 in Snow Light Snow
11:00 PM 18.0 °F -0.2 °F 10.0 °F 71% 30.07 in 5.0 mi NNW 25.3 mph 34.5 mph 0.00 in Snow Light Snow
11:53 PM 19.0 °F 3.2 °F 9.0 °F 65% 30.09 in 10.0 mi NNW 19.6 mph 29.9 mph 0.00 in   Overcast